Howell, MI

12:20 AM EDT on September 28, 2016 (GMT -0400)
Livingston County

Weather History for KOZW - December, 2011

Change the Weather History Date:

Thursday, December 22, 2011

  Actual Average Record
Temperature  
Mean Temperature 37 °F -  
Max Temperature 41 °F 30 °F 53 °F (2006)
Min Temperature 33 °F 18 °F -5 °F (2000)
Degree Days  
Heating Degree Days 28    
Moisture  
Dew Point 37 °F    
Average Humidity 91    
Maximum Humidity 99    
Minimum Humidity 73    
Precipitation  
Precipitation 0.00 in - - ()
Sea Level Pressure  
Sea Level Pressure 30.02 in    
Wind  
Wind Speed 4 mph (West)    
Max Wind Speed 8 mph    
Max Gust Speed -    
Visibility 5 miles    
Events Rain , Snow    
Averages and records for this station are not official NWS values.
T = Trace of Precipitation, MM = Missing Value Source: NWS Daily Summary

Daily Weather History Graph

Daily Weather History Graph

Search for Another Location

Airport or City:

Trip Planner

Search our weather history database for the weather conditions in past years. The results will help you decide how hot, cold, wet, or windy it might be!

Date:

Astronomy

Dec. 22, 2011 Rise Set
Actual Time 8:03 AM EST 5:05 PM EST
Civil Twilight 7:30 AM EST 5:38 PM EST
Nautical Twilight 6:55 AM EST 6:13 PM EST
Astronomical Twilight 6:20 AM EST 6:48 PM EST
Moon 5:45 AM EST (12/22) 3:15 PM EST (12/22)
Length of Visible Light 10h 07m
Length of Day
9h 02m
Waning Crescent, 6% of the Moon is Illuminated
Dec 22
Waning Crescent
Dec 24
New
Jan 1
First Quarter
Jan 9
Full
Jan 16
Last Quarter

Hourly Weather History & Observations

Time (EST) Temp. Windchill Dew Point Humidity Pressure Visibility Wind Dir Wind Speed Gust Speed Precip Events Conditions
12:15 AM 40.1 °F 36.9 °F 39.6 °F 98% 29.90 in 2.0 mi SW 4.6 mph - N/A   Overcast
12:35 AM 40.3 °F 37.1 °F 39.9 °F 99% 29.90 in 3.0 mi SW 4.6 mph - N/A   Overcast
12:54 AM 40.6 °F 37.5 °F 40.3 °F 99% 29.90 in 3.0 mi West 4.6 mph - N/A   Overcast
1:15 AM 40.6 °F 36.7 °F 40.3 °F 99% 29.92 in 3.0 mi WSW 5.8 mph - N/A   Overcast
1:35 AM 40.8 °F 36.9 °F 40.3 °F 98% 29.92 in 3.0 mi WSW 5.8 mph - N/A   Overcast
1:54 AM 41.0 °F 37.1 °F 40.3 °F 97% 29.93 in 2.5 mi WSW 5.8 mph - N/A   Overcast
2:15 AM 41.0 °F 37.1 °F 40.3 °F 97% 29.95 in 2.5 mi WSW 5.8 mph - N/A   Light Drizzle
2:35 AM 41.2 °F 38.2 °F 40.5 °F 97% 29.95 in 2.5 mi West 4.6 mph - N/A   Drizzle
2:55 AM 40.8 °F 37.8 °F 40.3 °F 98% 29.96 in 2.5 mi WSW 4.6 mph - N/A   Drizzle
3:15 AM 41.0 °F 38.0 °F 40.3 °F 97% 29.96 in 2.5 mi West 4.6 mph - N/A   Drizzle
3:35 AM 40.6 °F 38.6 °F 40.1 °F 98% 29.96 in 2.5 mi WSW 3.5 mph - N/A   Drizzle
3:55 AM 40.8 °F 38.8 °F 40.3 °F 98% 29.96 in 2.0 mi West 3.5 mph - N/A   Drizzle
4:14 AM 40.6 °F 36.7 °F 40.1 °F 98% 29.97 in 3.0 mi West 5.8 mph - N/A   Drizzle
4:35 AM 40.5 °F 35.8 °F 40.1 °F 99% 29.97 in 3.0 mi West 6.9 mph - N/A Rain Rain
4:55 AM 40.3 °F 36.3 °F 39.7 °F 98% 29.97 in 5.0 mi West 5.8 mph - N/A Rain Rain
5:15 AM 40.5 °F 36.5 °F 39.7 °F 97% 29.97 in 4.0 mi West 5.8 mph - N/A   Overcast
5:35 AM 40.1 °F 38.0 °F 39.4 °F 97% 29.98 in 5.0 mi WSW 3.5 mph - N/A   Overcast
5:55 AM 39.7 °F 34.9 °F 38.8 °F 97% 29.99 in 5.0 mi West 6.9 mph - N/A   Overcast
6:35 AM 38.3 °F 35.9 °F 37.4 °F 97% 30.03 in 4.0 mi WSW 3.5 mph - N/A   Overcast
6:55 AM 38.8 °F 36.5 °F 37.9 °F 97% 30.03 in 4.0 mi WSW 3.5 mph - N/A   Overcast
7:14 AM 39.2 °F 37.0 °F 38.3 °F 97% 30.03 in 4.0 mi West 3.5 mph - N/A   Overcast
7:35 AM 38.8 °F 36.5 °F 37.9 °F 97% 30.03 in 5.0 mi WSW 3.5 mph - N/A   Overcast
7:55 AM 38.8 °F 33.8 °F 37.8 °F 96% 30.03 in 5.0 mi WSW 6.9 mph - N/A   Overcast
8:14 AM 39.2 °F 35.9 °F 37.8 °F 95% 30.04 in 5.0 mi WSW 4.6 mph - N/A   Overcast
8:35 AM 39.2 °F 37.0 °F 37.8 °F 95% 30.03 in 4.0 mi West 3.5 mph - N/A   Overcast
8:54 AM 39.2 °F 35.9 °F 37.9 °F 95% 30.03 in 3.0 mi West 4.6 mph - N/A   Overcast
9:15 AM 39.2 °F 35.0 °F 36.3 °F 89% 30.03 in 7.0 mi WNW 5.8 mph - N/A   Overcast
9:35 AM 38.8 °F 33.8 °F 34.9 °F 86% 30.05 in 7.0 mi West 6.9 mph - N/A   Overcast
9:54 AM 39.2 °F 35.9 °F 33.4 °F 80% 30.05 in 10.0 mi West 4.6 mph - N/A   Overcast
10:15 AM 39.2 °F 35.9 °F 34.0 °F 82% 30.08 in 10.0 mi West 4.6 mph - N/A   Overcast
11:15 AM 40.1 °F - 34.3 °F 80% 30.08 in 10.0 mi Calm Calm - N/A   Overcast
11:35 AM 40.1 °F - 33.4 °F 77% 30.07 in 10.0 mi Calm Calm - N/A   Overcast
11:55 AM 40.5 °F - 33.4 °F 76% 30.06 in 10.0 mi Calm Calm - N/A   Overcast
12:15 PM 40.5 °F 37.3 °F 33.1 °F 75% 30.05 in 10.0 mi SSW 4.6 mph - N/A   Overcast
12:35 PM 40.6 °F 38.6 °F 33.4 °F 75% 30.05 in 10.0 mi SW 3.5 mph - N/A   Overcast
12:55 PM 41.0 °F 39.0 °F 33.4 °F 74% 30.05 in 10.0 mi West 3.5 mph - N/A   Overcast
1:15 PM 41.2 °F 39.2 °F 33.4 °F 74% 30.04 in 10.0 mi West 3.5 mph - N/A   Overcast
1:34 PM 40.6 °F - 33.3 °F 75% 30.04 in 10.0 mi Calm Calm - N/A   Overcast
1:55 PM 41.0 °F 39.0 °F 33.1 °F 73% 30.03 in 10.0 mi West 3.5 mph - N/A   Overcast
2:15 PM 41.0 °F - 32.9 °F 73% 30.03 in 10.0 mi Calm Calm - N/A   Overcast
2:34 PM 41.2 °F - 33.6 °F 74% 30.03 in 10.0 mi Calm Calm - N/A   Overcast
2:55 PM 41.2 °F - 34.2 °F 76% 30.03 in 10.0 mi Calm Calm - N/A   Overcast
3:15 PM 40.3 °F - 34.9 °F 81% 30.03 in 10.0 mi Calm Calm - N/A   Overcast
3:34 PM 41.2 °F - 34.5 °F 77% 30.04 in 10.0 mi Calm Calm - N/A   Overcast
4:35 PM 39.0 °F - 36.5 °F 91% 30.05 in 3.0 mi Calm Calm - N/A   Overcast
4:55 PM 38.3 °F - 36.5 °F 93% 30.04 in 1.8 mi Calm Calm - N/A   Drizzle
5:15 PM 37.9 °F - 36.9 °F 96% 30.03 in 1.5 mi Calm Calm - N/A   Light Drizzle
5:35 PM 37.9 °F - 37.2 °F 97% 30.03 in 1.2 mi Calm Calm - N/A   Heavy Drizzle
5:54 PM 37.6 °F - 36.9 °F 97% 30.03 in 1.5 mi Calm Calm - N/A   Drizzle
6:15 PM 37.4 °F 34.9 °F 36.7 °F 97% 30.03 in 1.8 mi North 3.5 mph - N/A   Drizzle
6:34 PM 37.4 °F - 36.7 °F 97% 30.02 in 1.8 mi Calm Calm - N/A Rain Light Rain
6:55 PM 37.2 °F 33.6 °F 36.7 °F 98% 30.04 in 1.8 mi North 4.6 mph - N/A Rain Light Rain
7:34 PM 36.5 °F 30.3 °F 36.0 °F 98% 30.07 in 3.0 mi North 8.1 mph - N/A Rain Light Rain
7:55 PM 35.1 °F 32.2 °F 34.3 °F 97% 30.06 in 2.5 mi North 3.5 mph - N/A Rain Light Rain
8:15 PM 34.0 °F - 33.4 °F 98% 30.07 in 1.5 mi Calm Calm - N/A Snow Light Snow
8:34 PM 33.8 °F 30.8 °F 33.4 °F 99% 30.07 in 1.5 mi North 3.5 mph - N/A Snow Light Snow
8:55 PM 33.8 °F 30.8 °F 33.3 °F 98% 30.07 in 1.8 mi North 3.5 mph - N/A Snow Light Snow
9:15 PM 33.8 °F 29.6 °F 33.3 °F 98% 30.07 in 1.5 mi North 4.6 mph - N/A Snow Light Snow
9:34 PM 33.8 °F - 33.3 °F 98% 30.08 in 1.5 mi Calm Calm - N/A Snow Light Snow
9:55 PM 33.6 °F 30.6 °F 33.3 °F 99% 30.08 in 1.2 mi North 3.5 mph - N/A Snow Light Snow
10:14 PM 33.8 °F 29.6 °F 33.3 °F 98% 30.08 in 2.0 mi North 4.6 mph - N/A Snow Light Snow
10:35 PM 33.8 °F 28.6 °F 33.3 °F 98% 30.09 in 2.5 mi North 5.8 mph - N/A Snow Light Snow
10:55 PM 33.4 °F 27.3 °F 33.1 °F 99% 30.09 in 1.5 mi North 6.9 mph - N/A Snow Light Snow
11:14 PM 32.5 °F 25.5 °F 32.2 °F 99% 30.10 in 3.0 mi North 8.1 mph - N/A Snow Light Snow
11:35 PM 32.7 °F 24.5 °F 32.2 °F 98% 30.11 in 2.0 mi NNW 10.4 mph 16.1 mph N/A Snow Light Snow
11:55 PM 31.5 °F 25.8 °F 30.7 °F 97% 30.12 in 4.0 mi North 5.8 mph - N/A Snow Light Snow